Location: Kitt Peak
(31.9639°N, 111.5992°W)
Time: 15:38:51
(UTC-07:00)

SRMSAT - Pass Details

Date: 15 December 2025
Orbit: 846 x 863 km, 20.0° (Epoch: 13 January)

Event Time Altitude Azimuth Distance (km) Brightness Sun altitude
Exits shadow 04:51:13 18° 184° (S) 1,929 ? -30.6°
Maximum altitude 04:52:22 20° 169° (S) 1,878 ? -30.4°
Drops below altitude 10° 04:56:30 10° 124° (SE) 2,467 ? -29.5°
Sets 04:59:45 0° 108° (ESE) 3,407 ? -28.8°
